Location: Penum?ka
(16.4840°N, 80.5772°E)
Time: 01:28:10
(UTC+00:00)

Cosmos 1939 Rocket - Pass Details

Date: 19 May 2025
Orbit: 496 x 536 km, 97.5° (Epoch: 24 June)

Event Time Altitude Azimuth Distance (km) Brightness Sun altitude
Rises 22:41:53 0° 16° (NNE) 2,582 6.9 -19.1°
Reaches altitude 10° 22:43:59 10° 21° (NNE) 1,694 6.0 -18.7°
Maximum altitude 22:47:34 58° 100° (E) 582 3.1 -17.9°
Enters shadow 22:50:28 15° 178° (S) 1,412 4.7 -17.3°
